TimeEST,TemperatureF,Dew PointF,Humidity,Sea Level PressureIn,VisibilityMPH,Wind Direction,Wind SpeedMPH,Gust SpeedMPH,PrecipitationIn,Events,Conditions,WindDirDegrees,DateUTC
12:42 AM,71.6,69.8,94,30.14,9.0,SW,9.2,-,N/A,,Overcast,230,2013-12-24 05:42:00
12:53 AM,72.0,69.1,91,30.14,9.0,WSW,8.1,-,N/A,,Overcast,240,2013-12-24 05:53:00
1:39 AM,69.8,66.2,88,30.14,8.0,NNW,11.5,-,N/A,,Overcast,330,2013-12-24 06:39:00
1:53 AM,66.9,64.9,93,30.14,8.0,NW,9.2,-,N/A,,Overcast,320,2013-12-24 06:53:00
2:53 AM,64.9,64.0,97,30.15,7.0,NW,10.4,-,N/A,,Overcast,310,2013-12-24 07:53:00
3:53 AM,63.0,61.0,93,30.17,4.0,NW,8.1,-,N/A,,Overcast,310,2013-12-24 08:53:00
4:53 AM,62.1,60.1,93,30.18,10.0,NNW,12.7,20.7,N/A,,Overcast,340,2013-12-24 09:53:00
5:53 AM,62.1,59.0,90,30.20,10.0,NNW,11.5,-,N/A,,Mostly Cloudy,340,2013-12-24 10:53:00
6:22 AM,62.6,57.2,82,30.21,10.0,NNW,11.5,-,N/A,,Overcast,340,2013-12-24 11:22:00
6:53 AM,62.1,57.9,86,30.22,10.0,NNW,10.4,-,N/A,,Overcast,340,2013-12-24 11:53:00
7:53 AM,61.0,57.0,87,30.24,10.0,NNW,12.7,-,N/A,,Overcast,330,2013-12-24 12:53:00
8:01 AM,60.8,57.2,88,30.24,10.0,NNW,11.5,19.6,N/A,,Mostly Cloudy,330,2013-12-24 13:01:00
8:53 AM,61.0,55.0,81,30.25,10.0,NNW,12.7,-,N/A,,Mostly Cloudy,330,2013-12-24 13:53:00
9:00 AM,60.8,55.4,82,30.25,10.0,NNW,10.4,-,N/A,,Mostly Cloudy,340,2013-12-24 14:00:00
9:07 AM,60.8,55.4,82,30.25,10.0,NNW,13.8,-,N/A,,Mostly Cloudy,330,2013-12-24 14:07:00
9:53 AM,63.0,55.0,75,30.26,10.0,North,10.4,-,N/A,,Mostly Cloudy,360,2013-12-24 14:53:00
10:53 AM,66.9,54.0,63,30.26,10.0,North,9.2,21.9,N/A,,Scattered Clouds,360,2013-12-24 15:53:00
11:53 AM,68.0,51.1,55,30.24,10.0,NNE,10.4,-,N/A,,Mostly Cloudy,30,2013-12-24 16:53:00
12:53 PM,68.0,46.0,45,30.22,10.0,North,12.7,-,N/A,,Mostly Cloudy,10,2013-12-24 17:53:00
1:53 PM,68.0,43.0,40,30.21,10.0,North,13.8,-,N/A,,Mostly Cloudy,360,2013-12-24 18:53:00
2:53 PM,69.1,39.9,35,30.19,10.0,North,15.0,-,N/A,,Mostly Cloudy,350,2013-12-24 19:53:00
3:53 PM,68.0,34.0,28,30.20,10.0,NNE,12.7,20.7,N/A,,Mostly Cloudy,20,2013-12-24 20:53:00
4:53 PM,66.9,26.1,21,30.21,10.0,NE,10.4,19.6,N/A,,Clear,40,2013-12-24 21:53:00
5:53 PM,63.0,30.0,29,30.22,10.0,North,9.2,-,N/A,,Scattered Clouds,10,2013-12-24 22:53:00
6:53 PM,60.1,30.9,33,30.25,10.0,NNE,6.9,-,N/A,,Partly Cloudy,20,2013-12-24 23:53:00
7:53 PM,57.9,30.9,36,30.26,10.0,NNE,9.2,-,N/A,,Partly Cloudy,20,2013-12-25 00:53:00
8:53 PM,55.9,32.0,40,30.27,10.0,NNE,10.4,-,N/A,,Clear,20,2013-12-25 01:53:00
9:53 PM,55.0,33.1,43,30.28,10.0,NNE,11.5,17.3,N/A,,Clear,20,2013-12-25 02:53:00
10:53 PM,53.1,33.1,47,30.29,10.0,NE,9.2,-,N/A,,Clear,40,2013-12-25 03:53:00
11:53 PM,51.1,34.0,52,30.28,10.0,NNE,8.1,-,N/A,,Clear,30,2013-12-25 04:53:00